Location: Newark
(52.2583°N, 7.1190°W)
Time: 20:35:33
(UTC+00:00)

Transit 2A Rocket - All Passes

Search period start: 18 November 2019 00:00
Search period end: 28 November 2019 00:00
Orbit: 594 x 909 km, 66.7° (Epoch: 17 November)

Date Brightness Start Highest point End Pass type
(mag) Time Alt. Az. Time Alt. Az. Time Alt. Az.
18 Nov - 00:01:32 10° WSW 00:05:50 38° NW 00:09:57 10° NNE night (unlit)
18 Nov - 01:46:59 10° NW 01:49:33 15° NNW 01:52:04 10° NNE night (unlit)
18 Nov - 03:31:46 10° NNW 03:33:55 13° N 03:36:04 10° NE visible
18 Nov - 05:14:02 10° NNW 05:17:51 29° NE 05:21:43 10° E visible
18 Nov - 06:56:23 10° NW 07:00:38 58° WSW 07:05:03 10° SSE visible
18 Nov - 21:37:04 10° S 21:40:54 25° ESE 21:44:34 10° ENE night (unlit)
18 Nov - 23:18:37 10° SW 23:23:10 57° NW 23:27:30 10° NE night (unlit)
19 Nov - 01:03:31 10° WNW 01:06:35 18° NNW 01:09:36 10° NNE night (unlit)
19 Nov - 02:49:00 10° NNW 02:50:52 12° N 02:52:45 10° NNE visible
19 Nov - 04:31:38 10° NNW 04:35:02 22° NNE 04:38:28 10° E visible
19 Nov - 06:13:48 10° NW 06:18:09 87° NE 06:22:38 10° SE visible
19 Nov - 07:57:33 10° WNW 08:00:06 15° WSW 08:02:41 10° SW daylight
19 Nov - 20:55:54 10° SE 20:58:37 16° ESE 21:01:17 10° ENE night (unlit)
19 Nov - 22:35:56 10° SW 22:40:36 89° NW 22:45:00 10° NE night (unlit)
20 Nov - 00:20:06 10° W 00:23:41 23° NNW 00:27:11 10° NNE night (unlit)
20 Nov - 02:05:55 10° NNW 02:07:49 12° N 02:09:43 10° NNE night (unlit)
20 Nov - 03:49:12 10° NNW 03:52:07 17° NNE 03:55:04 10° ENE visible
20 Nov - 05:31:18 10° NNW 05:35:34 55° NE 05:39:58 10° SE visible
20 Nov - 07:14:15 10° WNW 07:17:51 25° WSW 07:21:32 10° S visible
20 Nov - 21:53:32 10° SSW 21:58:06 57° ESE 22:02:26 10° NE night (unlit)
20 Nov - 23:36:51 10° W 23:40:53 30° NW 23:44:47 10° NNE night (unlit)
21 Nov - 01:22:33 10° NW 01:24:47 14° NNW 01:27:00 10° NNE night (unlit)
21 Nov - 03:06:43 10° NNW 03:09:10 14° NNE 03:11:35 10° NE visible
21 Nov - 04:48:52 10° NNW 04:52:54 37° NE 04:57:01 10° ESE visible
21 Nov - 06:31:24 10° NW 06:35:29 41° WSW 06:39:44 10° S visible
21 Nov - 21:11:29 10° S 21:15:42 34° ESE 21:19:43 10° NE night (unlit)
21 Nov - 22:53:47 10° WSW 22:58:10 43° NW 23:02:21 10° NNE night (unlit)
22 Nov - 00:39:04 10° WNW 00:41:47 16° NNW 00:44:27 10° NNE night (unlit)
22 Nov - 02:24:06 10° NNW 02:26:08 13° N 02:28:10 10° NE night (unlit)
22 Nov - 04:06:27 10° NNW 04:10:08 26° NNE 04:13:53 10° E visible
22 Nov - 05:48:44 10° NW 05:53:03 69° SW 05:57:32 10° SSE visible
22 Nov - 07:33:49 10° W 07:34:48 11° WSW 07:35:46 10° WSW daylight
22 Nov - 20:29:52 10° SSE 20:33:22 21° ESE 20:36:44 10° ENE night (unlit)
22 Nov - 22:10:57 10° SW 22:15:32 67° NW 22:19:55 10° NE night (unlit)
22 Nov - 23:55:37 10° WNW 23:58:51 19° NNW 00:02:01 10° NNE night (unlit)
23 Nov - 01:41:15 10° NNW 01:43:05 12° N 01:44:55 10° NNE night (unlit)
23 Nov - 03:24:03 10° NNW 03:27:18 20° NNE 03:30:34 10° ENE visible
23 Nov - 05:06:11 10° NW 05:10:32 74° NE 05:15:01 10° SE visible
23 Nov - 06:49:35 10° WNW 06:52:36 18° WSW 06:55:41 10° SSW visible
23 Nov - 19:49:06 10° SE 19:51:08 13° ESE 19:53:07 10° E night (unlit)
23 Nov - 21:28:22 10° SSW 21:32:59 78° SE 21:37:23 10° NE night (unlit)
23 Nov - 23:12:15 10° W 23:15:59 25° NNW 23:19:36 10° NNE night (unlit)
24 Nov - 00:58:03 10° NW 01:00:02 13° N 01:02:00 10° NNE night (unlit)
24 Nov - 02:41:37 10° NNW 02:44:22 16° NNE 02:47:08 10° ENE visible
24 Nov - 04:23:43 10° NNW 04:27:56 47° NE 04:32:15 10° ESE visible
24 Nov - 06:06:29 10° NW 06:10:18 30° WSW 06:14:15 10° S visible
24 Nov - 20:46:05 10° SSW 20:50:32 47° ESE 20:54:46 10° NE night (unlit)
24 Nov - 22:29:04 10° WSW 22:33:12 34° NW 22:37:12 10° NNE night (unlit)
25 Nov - 00:14:38 10° NW 00:17:00 14° NNW 00:19:21 10° NNE night (unlit)
25 Nov - 01:59:06 10° NNW 02:01:23 14° NNE 02:03:40 10° NE night (unlit)
25 Nov - 03:41:17 10° NNW 03:45:13 32° NE 03:49:15 10° ESE visible
25 Nov - 05:23:42 10° NW 05:27:54 49° WSW 05:32:17 10° SSE visible
25 Nov - 20:04:10 10° S 20:08:09 29° ESE 20:11:58 10° ENE night (unlit)
25 Nov - 21:46:04 10° WSW 21:50:31 50° NW 21:54:46 10° NNE night (unlit)
25 Nov - 23:31:09 10° WNW 23:34:01 17° NNW 23:36:51 10° NNE night (unlit)
26 Nov - 01:16:25 10° NNW 01:18:21 13° N 01:20:16 10° NNE night (unlit)
26 Nov - 02:58:52 10° NNW 03:02:25 24° NNE 03:06:02 10° E visible
26 Nov - 04:41:05 10° NW 04:45:27 82° SW 04:50:00 10° SSE visible
26 Nov - 06:25:15 10° W 06:27:19 13° WSW 06:29:24 10° SW visible
26 Nov - 19:22:46 10° SSE 19:25:51 18° ESE 19:28:50 10° ENE night (unlit)
26 Nov - 21:03:19 10° SW 21:07:55 78° NW 21:12:17 10° NE night (unlit)
26 Nov - 22:47:43 10° WNW 22:51:06 21° NNW 22:54:26 10° NNE night (unlit)
27 Nov - 00:33:27 10° NNW 00:35:18 12° N 00:37:08 10° NNE night (unlit)
27 Nov - 02:16:28 10° NNW 02:19:33 19° NNE 02:22:40 10° ENE night (unlit)
27 Nov - 03:58:34 10° NW 04:02:54 64° NE 04:07:23 10° SE visible
27 Nov - 05:41:42 10° WNW 05:45:04 22° WSW 05:48:34 10° SSW visible
27 Nov - 18:42:57 10° ESE 18:43:39 10° ESE 18:44:22 10° E visible
27 Nov - 20:20:50 10° SSW 20:25:24 66° SE 20:29:44 10° NE visible
27 Nov - 22:04:25 10° W 22:08:16 27° NW 22:12:01 10° NNE night (unlit)
27 Nov - 23:50:10 10° NW 23:52:15 13° N 23:54:19 10° NNE night (unlit)
